Eagle, AK

5:42 AM AKDT on April 28, 2017 (GMT -0800)
Eagle

Weather History for PAEG - August, 2013

Change the Weather History Date:

Tuesday, August 20, 2013

  Actual Average (PABN) Record (PABN)
Temperature  
Mean Temperature 54 °F -  
Max Temperature 61 °F 54 °F 62 °F (1997)
Min Temperature 48 °F 43 °F 39 °F (1997)
Degree Days  
Heating Degree Days 12    
Growing Degree Days 4 (Base 50)    
Moisture  
Dew Point 48 °F    
Average Humidity 85    
Maximum Humidity 96    
Minimum Humidity 67    
Precipitation  
Precipitation 0.39 in - - ()
Sea Level Pressure  
Sea Level Pressure 29.68 in    
Wind  
Wind Speed 3 mph (SE)    
Max Wind Speed 9 mph    
Max Gust Speed 28 mph    
Visibility 9 miles    
Events Rain    
Averages and records for this station are not official NWS values.
T = Trace of Precipitation, MM = Missing Value Source: NWS Daily Summary

Daily Weather History Graph

Daily Weather History Graph

Search for Another Location

Airport or City:

Trip Planner

Search our weather history database for the weather conditions in past years. The results will help you decide how hot, cold, wet, or windy it might be!

Date:

Astronomy

Aug. 20, 2013 Rise Set
Actual Time 5:28 AM AKDT 9:24 PM AKDT
Civil Twilight 4:25 AM AKDT 10:26 PM AKDT
Nautical Twilight 2:30 AM AKDT 12:15 AM AKDT
Astronomical Twilight Sun does not set Sun does not set
Moon 8:30 PM AKDT (8/20) 5:23 AM AKDT (8/20)
Length of Visible Light 18h 00m
Length of Day
15h 55m
Full, 100% of the Moon is Illuminated
Aug 20
Full
Aug 20
Full
Aug 28
Last Quarter
Sep 5
New
Sep 12
First Quarter

Hourly Weather History & Observations

Time (AKDT) Temp. Dew Point Humidity Pressure Visibility Wind Dir Wind Speed Gust Speed Precip Events Conditions
12:53 AM 55.9 °F 48.0 °F 75% 29.63 in 10.0 mi WSW 4.6 mph - N/A   Overcast
1:53 AM 53.1 °F 48.0 °F 83% 29.64 in 10.0 mi Calm Calm - 0.00 in Rain Light Rain
2:53 AM 51.1 °F 48.0 °F 89% 29.63 in 10.0 mi Calm Calm - 0.01 in Rain Light Rain
3:53 AM 50.0 °F 48.0 °F 93% 29.64 in 10.0 mi Calm Calm - 0.01 in   Overcast
4:53 AM 50.0 °F 48.0 °F 93% 29.63 in 10.0 mi Calm Calm - N/A   Overcast
5:53 AM 50.0 °F 48.0 °F 93% 29.64 in 10.0 mi Calm Calm - N/A   Overcast
6:53 AM 50.0 °F 48.0 °F 93% 29.63 in 10.0 mi Calm Calm - 0.00 in   Overcast
7:53 AM 51.1 °F 50.0 °F 96% 29.63 in 10.0 mi Calm Calm - 0.01 in Rain Light Rain
8:53 AM 54.0 °F 50.0 °F 86% 29.64 in 10.0 mi ESE 9.2 mph - 0.00 in Rain Light Rain
9:53 AM 55.0 °F 48.0 °F 77% 29.65 in 10.0 mi SE 8.1 mph 17.3 mph 0.00 in   Overcast
10:53 AM 57.0 °F 48.0 °F 72% 29.65 in 10.0 mi SE 6.9 mph - N/A   Overcast
11:53 AM 57.9 °F 46.9 °F 67% 29.65 in 10.0 mi SE 9.2 mph - N/A   Overcast
12:53 PM 59.0 °F 48.9 °F 69% 29.66 in 10.0 mi Variable 4.6 mph - N/A   Overcast
1:53 PM 59.0 °F 50.0 °F 72% 29.68 in 10.0 mi Calm Calm - 0.00 in Rain Light Rain
2:53 PM 57.9 °F 50.0 °F 75% 29.68 in 10.0 mi Calm Calm - N/A   Overcast
3:53 PM 57.0 °F 51.1 °F 81% 29.68 in 10.0 mi NE 3.5 mph - N/A   Overcast
4:53 PM 55.9 °F 52.0 °F 87% 29.69 in 10.0 mi Calm Calm - 0.00 in Rain Light Rain
5:53 PM 57.9 °F 46.9 °F 67% 29.69 in 10.0 mi Calm Calm - 0.00 in   Overcast
6:53 PM 52.0 °F 48.0 °F 86% 29.73 in 2.5 mi WNW 9.2 mph 27.6 mph 0.07 in Rain Rain
7:02 PM 51.8 °F 48.2 °F 88% 29.72 in 5.0 mi Variable 4.6 mph - 0.02 in Rain Light Rain
7:53 PM 50.0 °F 48.9 °F 96% 29.73 in 9.0 mi Calm Calm - 0.04 in Rain Light Rain
8:53 PM 48.9 °F 46.9 °F 93% 29.73 in 7.0 mi SE 3.5 mph - 0.09 in Rain Light Rain
9:53 PM 48.9 °F 46.9 °F 93% 29.74 in 10.0 mi SE 4.6 mph - 0.07 in Rain Light Rain
10:53 PM 48.0 °F 46.9 °F 96% 29.75 in 9.0 mi SSE 4.6 mph - 0.04 in Rain Light Rain
11:53 PM 48.0 °F 46.9 °F 96% 29.75 in 10.0 mi SSE 3.5 mph - 0.05 in Rain Light Rain